LGL8211 ELLX-LFMT

Flight info

Callsign LGL8211
Flight time N/A
Altitude FL230
Route GTQ3P/06 GTQ A242 POGOL LASAT MOROK GILIR GEVEA INCUS BALSI ETIDO KURIR MTL MOLEN NG NG7T
Aircraft DH8D/M-SDE2E3FGRY/H

Departure

Time 2026-05-05 18:53
Airport Luxembourg-Findel International Airport (ELLX)

Arrival

Time N/A
Airport Montpellier-Méditerranée Airport (LFMT)
Time Latitude Longitude Altitude Speed Heading
2026-05-05 18:36 49.63222 6.21449 1240 ft 0 kts 240°
2026-05-05 18:44 49.63226 6.21462 1239 ft 2 kts 240°
2026-05-05 18:44 49.63232 6.21476 1239 ft 1 kts 240°
2026-05-05 18:44 49.63239 6.21492 1239 ft 2 kts 214°
2026-05-05 18:44 49.63252 6.21499 1240 ft 2 kts 186°
2026-05-05 18:45 49.63265 6.21497 1240 ft 2 kts 158°
2026-05-05 18:45 49.63272 6.21492 1241 ft 1 kts 149°
2026-05-05 18:47 49.63266 6.21497 1240 ft 4 kts 150°
2026-05-05 18:47 49.63229 6.21530 1238 ft 8 kts 150°
2026-05-05 18:47 49.63171 6.21581 1233 ft 11 kts 150°
2026-05-05 18:48 49.63110 6.21633 1230 ft 8 kts 159°
2026-05-05 18:48 49.63068 6.21613 1228 ft 10 kts 236°
2026-05-05 18:48 49.63029 6.21493 1232 ft 15 kts 244°
2026-05-05 18:48 49.62976 6.21321 1234 ft 20 kts 244°
2026-05-05 18:49 49.62909 6.21108 1239 ft 24 kts 243°
2026-05-05 18:49 49.62839 6.20879 1240 ft 22 kts 245°
2026-05-05 18:49 49.62761 6.20700 1236 ft 20 kts 222°
2026-05-05 18:49 49.62642 6.20544 1231 ft 25 kts 228°
2026-05-05 18:50 49.62527 6.20338 1225 ft 26 kts 231°
2026-05-05 18:50 49.62429 6.20098 1216 ft 28 kts 239°
2026-05-05 18:50 49.62330 6.19830 1205 ft 30 kts 240°
2026-05-05 18:50 49.62221 6.19543 1190 ft 31 kts 240°
2026-05-05 18:51 49.62110 6.19243 1175 ft 33 kts 239°
2026-05-05 18:51 49.62002 6.18953 1164 ft 28 kts 238°
2026-05-05 18:51 49.61899 6.18757 1156 ft 20 kts 218°
2026-05-05 18:51 49.61821 6.18714 1154 ft 7 kts 153°
2026-05-05 18:52 49.61778 6.18754 1155 ft 7 kts 141°
2026-05-05 18:52 49.61822 6.18952 1161 ft 59 kts 58°
2026-05-05 18:52 49.62173 6.19895 1205 ft 138 kts 61°
2026-05-05 18:52 49.62705 6.21290 1560 ft 161 kts 61°
2026-05-05 18:53 49.63285 6.22816 2196 ft 172 kts 61°
2026-05-05 18:53 49.63886 6.24452 2864 ft 183 kts 63°
2026-05-05 18:53 49.64272 6.26413 3205 ft 201 kts 95°
2026-05-05 18:53 49.63641 6.28354 3514 ft 215 kts 135°
2026-05-05 18:54 49.62492 6.29997 3830 ft 234 kts 140°
2026-05-05 18:54 49.61234 6.31767 4002 ft 256 kts 139°
2026-05-05 18:54 49.59902 6.33668 4467 ft 261 kts 139°
2026-05-05 18:54 49.58610 6.35553 5176 ft 255 kts 139°
2026-05-05 18:55 49.57198 6.37196 5704 ft 255 kts 155°
2026-05-05 18:55 49.55555 6.38204 6271 ft 255 kts 162°
2026-05-05 18:55 49.53884 6.39171 6792 ft 257 kts 161°
2026-05-05 18:55 49.52208 6.40140 7320 ft 260 kts 162°
2026-05-05 18:56 49.50518 6.41121 7869 ft 261 kts 162°
2026-05-05 18:56 49.48820 6.42113 8384 ft 263 kts 161°
2026-05-05 18:56 49.47092 6.43126 8891 ft 268 kts 161°
2026-05-05 18:56 49.45360 6.44144 9508 ft 267 kts 162°
2026-05-05 18:57 49.43600 6.45179 10033 ft 270 kts 162°
2026-05-05 18:57 49.41851 6.46208 10548 ft 272 kts 162°
2026-05-05 18:57 49.40453 6.47030 10963 ft 273 kts 162°
2026-05-05 18:57 49.38818 6.47994 11417 ft 275 kts 162°
2026-05-05 18:58 49.37103 6.49003 11862 ft 276 kts 162°
2026-05-05 18:58 49.35520 6.49937 12240 ft 279 kts 162°
2026-05-05 18:58 49.33437 6.51164 12785 ft 280 kts 162°
2026-05-05 18:58 49.31566 6.52264 13244 ft 283 kts 162°
2026-05-05 18:59 49.29730 6.53343 13716 ft 284 kts 162°
2026-05-05 18:59 49.27874 6.54433 14189 ft 286 kts 162°
2026-05-05 18:59 49.26042 6.55508 14625 ft 287 kts 162°
2026-05-05 18:59 49.24151 6.56618 15025 ft 288 kts 161°
2026-05-05 19:00 49.22314 6.57701 15651 ft 281 kts 161°
2026-05-05 19:00 49.20487 6.58774 16119 ft 281 kts 161°
2026-05-05 19:00 49.18659 6.59845 16511 ft 282 kts 161°
2026-05-05 19:00 49.16812 6.60926 16902 ft 284 kts 161°
2026-05-05 19:01 49.15000 6.61990 17523 ft 277 kts 161°
2026-05-05 19:01 49.13244 6.63018 18000 ft 275 kts 161°
2026-05-05 19:01 49.11465 6.64057 18351 ft 276 kts 161°
2026-05-05 19:01 49.09718 6.65076 18670 ft 278 kts 162°
2026-05-05 19:02 49.08258 6.65928 18961 ft 277 kts 162°
2026-05-05 19:02 49.06227 6.67115 19550 ft 270 kts 161°
2026-05-05 19:02 49.04496 6.68126 19967 ft 269 kts 161°
2026-05-05 19:02 49.02775 6.69129 20384 ft 263 kts 161°
2026-05-05 19:03 49.01093 6.70111 20840 ft 258 kts 161°
2026-05-05 19:03 48.99461 6.71058 21112 ft 258 kts 162°
2026-05-05 19:03 48.97758 6.71589 21306 ft 258 kts 179°
2026-05-05 19:03 48.95953 6.71534 21526 ft 261 kts 182°
2026-05-05 19:04 48.94152 6.71441 21960 ft 254 kts 182°
2026-05-05 19:04 48.92420 6.71353 22335 ft 250 kts 182°
2026-05-05 19:04 48.90763 6.71275 22575 ft 250 kts 182°
2026-05-05 19:04 48.89318 6.71209 22750 ft 251 kts 182°
2026-05-05 19:05 48.87897 6.71145 22803 ft 256 kts 182°
2026-05-05 19:05 48.85639 6.71047 22838 ft 266 kts 182°
2026-05-05 19:05 48.83743 6.70964 22842 ft 277 kts 182°
2026-05-05 19:05 48.81806 6.70880 22843 ft 286 kts 182°
2026-05-05 19:06 48.79805 6.70793 22844 ft 295 kts 182°
2026-05-05 19:06 48.77778 6.70706 22841 ft 303 kts 182°
2026-05-05 19:06 48.75748 6.70621 22840 ft 310 kts 182°
2026-05-05 19:06 48.73575 6.70529 22837 ft 315 kts 182°
2026-05-05 19:07 48.71379 6.70439 22836 ft 317 kts 182°
2026-05-05 19:07 48.69914 6.70379 22835 ft 319 kts 182°
2026-05-05 19:07 48.66921 6.70258 22834 ft 321 kts 182°
2026-05-05 19:07 48.64682 6.70168 22833 ft 323 kts 182°
2026-05-05 19:08 48.62473 6.70080 22832 ft 322 kts 182°
2026-05-05 19:08 48.60249 6.69994 22834 ft 323 kts 182°
2026-05-05 19:09 48.54085 6.69756 22834 ft 325 kts 182°
2026-05-05 19:09 48.51861 6.69670 22832 ft 323 kts 182°
2026-05-05 19:09 48.49591 6.69582 22832 ft 323 kts 182°
2026-05-05 19:09 48.47489 6.69501 22833 ft 324 kts 182°
2026-05-05 19:10 48.45240 6.69416 22832 ft 324 kts 182°
2026-05-05 19:10 48.43033 6.69331 22831 ft 324 kts 182°
2026-05-05 19:10 48.40791 6.69245 22833 ft 325 kts 182°
2026-05-05 19:10 48.38499 6.69158 22834 ft 326 kts 182°
2026-05-05 19:11 48.36235 6.69070 22834 ft 327 kts 182°
2026-05-05 19:11 48.33959 6.68982 22833 ft 327 kts 182°
2026-05-05 19:11 48.31688 6.68893 22832 ft 328 kts 182°
2026-05-05 19:11 48.29423 6.68806 22835 ft 327 kts 182°
2026-05-05 19:12 48.27143 6.68718 22838 ft 328 kts 182°
2026-05-05 19:12 48.24871 6.68630 22839 ft 328 kts 182°
2026-05-05 19:12 48.22582 6.68543 22838 ft 327 kts 182°
2026-05-05 19:12 48.20312 6.68456 22839 ft 328 kts 182°
2026-05-05 19:13 48.18202 6.68374 22839 ft 327 kts 182°
2026-05-05 19:13 48.16852 6.68323 22839 ft 326 kts 182°
2026-05-05 19:13 48.14709 6.68242 22841 ft 323 kts 182°
2026-05-05 19:13 48.12070 6.68143 22848 ft 324 kts 182°
2026-05-05 19:14 48.09823 6.68057 22850 ft 324 kts 182°
2026-05-05 19:14 48.07571 6.67972 22851 ft 325 kts 182°
2026-05-05 19:14 48.05301 6.67887 22854 ft 325 kts 182°
2026-05-05 19:14 48.03515 6.67820 22851 ft 323 kts 182°
2026-05-05 19:15 48.01136 6.67730 22853 ft 321 kts 182°
2026-05-05 19:15 47.98944 6.67647 22855 ft 319 kts 183°
2026-05-05 19:15 47.96792 6.67567 22855 ft 318 kts 183°
2026-05-05 19:15 47.94471 6.67479 22853 ft 317 kts 183°
2026-05-05 19:16 47.92276 6.67398 22856 ft 318 kts 183°
2026-05-05 19:16 47.90067 6.67315 22859 ft 320 kts 183°
2026-05-05 19:16 47.87918 6.67234 22857 ft 320 kts 183°